Weather in Novosilka

Ukraine / Odesa District     47°38′12″N   29°55′33″E
В апреле 2022 года жителям России запретили посещать сайт meteo.paraplan.net по решению Генеральной прокуратуры. Аудитория сайта уменьшилась в 10 раз. Владельцы сайта не видят смысла в поддержке погодного сервера в таких условиях. Сайт будет закрыт в октябре.
temp.,
°C
wind,
m/s
gust,
m/s
humid.,
%
clouds,
%
prec.,
mm/h
press.,
hPa
HPBL,
m
30 september, fri
fri3000:00+17sse51091100 0.7 1008258
03:00+16s36945 0.7 1009119
06:00+15sw22910 0.0 101012
09:00+18wsw127187 0.0 1011164
12:00+22w2254100 0.0 1013641
15:00+23w2247100 0.0 1013963
18:00+22wsw2252100 0.0 101411
21:00+19ene115728 0.0 101511
1 october, sat
sat100:00+17sse22667 0.0 101613
03:00+16sw11689 0.0 101611
06:00+16wsw226521 0.0 101714
09:00+19w2455100 0.0 1018176
12:00+24wsw3443100 0.0 1017747
15:00+26sw4536100 0.0 10161609
18:00+24s3343100 0.0 101428
21:00+21sse4846100 0.0 1012132
2 october, sun
sun200:00+20s61458100 0.0 1010335
03:00+18ssw3863100 0.0 1008167
06:00+17sw3771100 0.0 1007145
09:00+17nnw5974100 0.0 1007360
12:00+17wnw4779100 0.1 1007666
15:00+16nw9127499 1.6 1007850
18:00+13nw81372100 0.0 1009969
21:00+12nw714755 0.0 1009845
3 october, mon
mon300:00+11wnw8148125 0.0 1010688
03:00+11wnw7138095 0.1 1010738
06:00+12wnw61270100 0.0 1011835
09:00+12wnw7117299 0.1 1012865
12:00+14wnw8105999 0.1 10121387
15:00+15wnw7951100 0.6 10131744
18:00+14nw695792 0.3 1014946
21:00+10wnw497618 0.3 1016282
4 october, tue
tue400:00+12wnw5863100 0.0 1016626
03:00+12w4860100 0.0 1016393
06:00+11wsw5965100 0.0 1016558
09:00+11w4977100 0.4 1017567
12:00+12wsw6974100 0.3 1017908
15:00+12sw4975100 0.4 1017603
18:00+12wnw4874100 0.3 1018411
21:00+10sw379084 1.8 1018195